When you browse on this site, cookies collect data to enhance your experience and personalize the content and advertising you see.
Visit our Privacy Policy to learn more. By continuing to use the site, you agree to this use of cookies and data.
  • In Sweden
  • List of Countries
  • For 7 days
  • Water Temperature
  • Weather Map
  • Weather Widgets
  • user-avatar
    Login

    Hourly Weather Trashigang

    Today, 4 April, Saturday

    Time Temperature Precipitation Wind Pressure Humidity
    00:00 +13°C° 0 mm 2 mps 627 mmHg 57%
    01:00 +12°C° 0 mm 2 mps 627 mmHg 57%
    02:00 +12°C° 0 mm 2 mps 626 mmHg 57%
    03:00 +12°C° 0 mm 2 mps 626 mmHg 56%
    04:00 +10°C° 0 mm 2 mps 626 mmHg 56%
    05:00 +10°C° 0 mm 2 mps 627 mmHg 56%
    06:00 +10°C° 0 mm 2 mps 627 mmHg 59%
    07:00 +15°C° 0 mm 1 mps 628 mmHg 51%
    08:00 +19°C° 0 mm 1 mps 629 mmHg 42%
    09:00 +22°C° 0 mm 1 mps 631 mmHg 34%
    10:00 +23°C° 0 mm 2 mps 631 mmHg 32%
    11:00 +24°C° 0 mm 2 mps 630 mmHg 30%
    12:00 +24°C° 0 mm 3 mps 630 mmHg 32%
    13:00 +22°C° 0.1 mm 3 mps 629 mmHg 36%
    14:00 +21°C° 0.1 mm 3 mps 628 mmHg 40%
    15:00 +21°C° 0.1 mm 3 mps 627 mmHg 44%
    16:00 +19°C° 0.1 mm 2 mps 627 mmHg 48%
    17:00 +18°C° 0.1 mm 2 mps 627 mmHg 51%
    18:00 +18°C° 0.1 mm 1 mps 627 mmHg 55%
    19:00 +16°C° 0 mm 1 mps 627 mmHg 56%
    20:00 +15°C° 0 mm 1 mps 627 mmHg 57%
    21:00 +14°C° 0 mm 1 mps 628 mmHg 59%
    22:00 +13°C° 0 mm 1 mps 627 mmHg 58%
    23:00 +13°C° 0 mm 1 mps 627 mmHg 57%

    Tomorrow, 5 April, Sunday

    Time Temperature Precipitation Wind Pressure Humidity
    00:00 +13°C° 0 mm 2 mps 627 mmHg 56%
    01:00 +12°C° 0 mm 2 mps 627 mmHg 55%
    02:00 +12°C° 0 mm 2 mps 626 mmHg 54%
    03:00 +10°C° 0 mm 2 mps 626 mmHg 52%
    04:00 +10°C° 0 mm 2 mps 626 mmHg 52%
    05:00 +10°C° 0 mm 2 mps 626 mmHg 52%
    06:00 +10°C° 0 mm 2 mps 627 mmHg 52%
    07:00 +14°C° 0 mm 1 mps 628 mmHg 43%
    08:00 +19°C° 0 mm 1 mps 630 mmHg 35%
    09:00 +23°C° 0 mm 1 mps 631 mmHg 26%
    10:00 +23°C° 0 mm 1 mps 631 mmHg 24%
    11:00 +24°C° 0 mm 2 mps 631 mmHg 22%
    12:00 +24°C° 0 mm 3 mps 630 mmHg 21%
    13:00 +24°C° 0 mm 3 mps 629 mmHg 22%
    14:00 +24°C° 0 mm 3 mps 628 mmHg 24%
    15:00 +22°C° 0 mm 3 mps 627 mmHg 26%
    16:00 +21°C° 0 mm 2 mps 627 mmHg 31%
    17:00 +19°C° 0 mm 2 mps 626 mmHg 36%
    18:00 +18°C° 0 mm 1 mps 626 mmHg 41%
    19:00 +16°C° 0 mm 1 mps 626 mmHg 42%
    20:00 +15°C° 0 mm 1 mps 627 mmHg 43%
    21:00 +14°C° 0 mm 1 mps 627 mmHg 45%
    22:00 +13°C° 0 mm 2 mps 627 mmHg 46%
    23:00 +13°C° 0 mm 2 mps 627 mmHg 47%

    Day after tomorrow, 6 April, Monday

    Time Temperature Precipitation Wind Pressure Humidity
    00:00 +13°C° 0 mm 2 mps 626 mmHg 49%
    01:00 +12°C° 0 mm 2 mps 626 mmHg 49%
    02:00 +12°C° 0 mm 2 mps 626 mmHg 50%
    03:00 +12°C° 0 mm 2 mps 625 mmHg 51%
    04:00 +12°C° 0 mm 2 mps 626 mmHg 51%
    05:00 +12°C° 0 mm 2 mps 626 mmHg 51%
    06:00 +12°C° 0 mm 2 mps 626 mmHg 50%
    07:00 +15°C° 0 mm 2 mps 627 mmHg 43%
    08:00 +20°C° 0 mm 1 mps 629 mmHg 36%
    09:00 +23°C° 0 mm 1 mps 630 mmHg 29%
    10:00 +24°C° 0 mm 2 mps 630 mmHg 27%
    11:00 +25°C° 0 mm 2 mps 630 mmHg 25%
    12:00 +26°C° 0 mm 3 mps 630 mmHg 24%
    13:00 +25°C° 0 mm 3 mps 629 mmHg 25%
    14:00 +25°C° 0 mm 3 mps 628 mmHg 26%
    15:00 +25°C° 0 mm 3 mps 627 mmHg 27%
    16:00 +22°C° 0 mm 3 mps 627 mmHg 31%
    17:00 +20°C° 0 mm 2 mps 626 mmHg 35%
    18:00 +19°C° 0 mm 1 mps 625 mmHg 39%
    19:00 +18°C° 0 mm 1 mps 626 mmHg 41%
    20:00 +16°C° 0 mm 1 mps 626 mmHg 42%
    21:00 +14°C° 0 mm 2 mps 626 mmHg 44%
    22:00 +14°C° 0 mm 2 mps 626 mmHg 44%
    23:00 +14°C° 0 mm 2 mps 626 mmHg 45%

    7 April, Tuesday

    Time Temperature Precipitation Wind Pressure Humidity
    00:00 +13°C° 0 mm 2 mps 626 mmHg 46%
    01:00 +13°C° 0 mm 2 mps 625 mmHg 47%
    02:00 +13°C° 0 mm 2 mps 625 mmHg 47%
    03:00 +13°C° 0 mm 2 mps 624 mmHg 48%
    04:00 +13°C° 0 mm 2 mps 624 mmHg 48%
    05:00 +12°C° 0 mm 2 mps 625 mmHg 48%
    06:00 +12°C° 0 mm 2 mps 625 mmHg 47%
    07:00 +16°C° 0 mm 2 mps 626 mmHg 40%
    08:00 +21°C° 0 mm 1 mps 628 mmHg 33%
    09:00 +24°C° 0 mm 1 mps 629 mmHg 26%
    10:00 +25°C° 0 mm 1 mps 629 mmHg 25%
    11:00 +26°C° 0 mm 2 mps 629 mmHg 23%
    12:00 +26°C° 0 mm 3 mps 629 mmHg 22%
    13:00 +26°C° 0 mm 3 mps 628 mmHg 24%
    14:00 +26°C° 0 mm 3 mps 627 mmHg 25%
    15:00 +25°C° 0 mm 3 mps 627 mmHg 27%
    16:00 +23°C° 0 mm 2 mps 626 mmHg 32%
    17:00 +20°C° 0 mm 2 mps 625 mmHg 37%
    18:00 +19°C° 0 mm 1 mps 625 mmHg 42%
    19:00 +18°C° 0 mm 1 mps 625 mmHg 45%
    20:00 +16°C° 0 mm 1 mps 625 mmHg 47%
    21:00 +15°C° 0 mm 2 mps 626 mmHg 50%
    22:00 +15°C° 0 mm 2 mps 626 mmHg 50%
    23:00 +15°C° 0 mm 2 mps 626 mmHg 51%

    8 April, Wednesday

    Time Temperature Precipitation Wind Pressure Humidity
    00:00 +15°C° 0 mm 2 mps 626 mmHg 52%
    01:00 +14°C° 0 mm 2 mps 625 mmHg 52%
    02:00 +14°C° 0 mm 2 mps 625 mmHg 52%
    03:00 +14°C° 0 mm 2 mps 625 mmHg 52%
    04:00 +14°C° 0 mm 2 mps 625 mmHg 52%
    05:00 +14°C° 0 mm 2 mps 625 mmHg 52%
    06:00 +13°C° 0 mm 2 mps 626 mmHg 52%
    07:00 +17°C° 0 mm 2 mps 627 mmHg 45%
    08:00 +21°C° 0 mm 1 mps 629 mmHg 37%
    09:00 +25°C° 0 mm 1 mps 630 mmHg 30%
    10:00 +25°C° 0 mm 2 mps 630 mmHg 28%
    11:00 +26°C° 0 mm 2 mps 630 mmHg 26%
    12:00 +27°C° 0 mm 3 mps 630 mmHg 23%
    13:00 +27°C° 0 mm 3 mps 629 mmHg 25%
    14:00 +26°C° 0 mm 3 mps 628 mmHg 27%
    15:00 +26°C° 0 mm 3 mps 628 mmHg 28%
    16:00 +24°C° 0 mm 2 mps 627 mmHg 34%
    17:00 +21°C° 0 mm 2 mps 626 mmHg 39%
    18:00 +20°C° 0 mm 1 mps 625 mmHg 45%
    19:00 +19°C° 0 mm 1 mps 625 mmHg 47%
    20:00 +18°C° 0 mm 1 mps 626 mmHg 50%
    21:00 +16°C° 0 mm 2 mps 626 mmHg 53%
    22:00 +16°C° 0.1 mm 2 mps 626 mmHg 55%
    23:00 +15°C° 0.1 mm 1 mps 627 mmHg 58%

    9 April, Thursday

    Time Temperature Precipitation Wind Pressure Humidity
    00:00 +15°C° 0.1 mm 1 mps 627 mmHg 60%
    01:00 +14°C° 0.1 mm 1 mps 626 mmHg 64%
    02:00 +14°C° 0.1 mm 1 mps 626 mmHg 67%
    03:00 +13°C° 0.1 mm 1 mps 625 mmHg 71%
    04:00 +13°C° 0 mm 1 mps 625 mmHg 70%
    05:00 +13°C° 0 mm 1 mps 626 mmHg 70%
    06:00 +13°C° 0 mm 1 mps 626 mmHg 69%
    07:00 +16°C° 0 mm 1 mps 627 mmHg 59%
    08:00 +21°C° 0 mm 1 mps 628 mmHg 50%
    09:00 +24°C° 0 mm 1 mps 630 mmHg 40%
    10:00 +24°C° 0.3 mm 2 mps 629 mmHg 38%
    11:00 +25°C° 0.3 mm 2 mps 629 mmHg 37%
    12:00 +25°C° 0.3 mm 3 mps 629 mmHg 35%
    13:00 +25°C° 0.7 mm 3 mps 628 mmHg 39%
    14:00 +24°C° 0.7 mm 3 mps 627 mmHg 42%
    15:00 +22°C° 0.7 mm 3 mps 626 mmHg 46%
    16:00 +20°C° 0.9 mm 2 mps 626 mmHg 54%
    17:00 +19°C° 0.9 mm 2 mps 625 mmHg 62%
    18:00 +18°C° 0.9 mm 1 mps 625 mmHg 70%
    19:00 +16°C° 1 mm 1 mps 625 mmHg 74%
    20:00 +15°C° 1 mm 2 mps 626 mmHg 77%
    21:00 +13°C° 1 mm 2 mps 626 mmHg 80%
    22:00 +13°C° 0 mm 2 mps 626 mmHg 79%
    23:00 +13°C° 0 mm 2 mps 626 mmHg 77%
    Show more